This is the latest recevied weather packets stored in our database for station/object KC1BRV. If no packets are shown the sender has not sent any weather packets the latest 10 day(s).
| Time | Temp. | Humidity | Pressure | Rain* | Wind** | Luminosity | Snow |
|---|---|---|---|---|---|---|---|
| 1777891382 | 5° C | 78% | 1013.1 hPa | 0 mm | - | 30 W/m² | - |
| 1777891077 | 5° C | 79% | 1013.3 hPa | 0 mm | - | 27 W/m² | - |
| 1777890772 | 4.44° C | 80% | 1013.3 hPa | 0 mm | - | 24 W/m² | - |
| 1777890469 | 3.89° C | 81% | 1013.1 hPa | 0 mm | - | 22 W/m² | - |
| 1777890164 | 3.89° C | 83% | 1013.2 hPa | 0 mm | - | 20 W/m² | - |
| 1777889861 | 3.33° C | 84% | 1013.1 hPa | 0 mm | - | 18 W/m² | - |
| 1777889559 | 3.33° C | 84% | 1013.1 hPa | 0 mm | - | 15 W/m² | - |
| 1777889256 | 3.33° C | 84% | 1013.2 hPa | 0 mm | - | 13 W/m² | - |
| 1777888954 | 2.78° C | 86% | 1013 hPa | 0 mm | - | 11 W/m² | - |
| 1777888651 | 2.78° C | 86% | 1013 hPa | 0 mm | - | 8 W/m² | - |
| 1777888347 | 2.78° C | 86% | 1012.8 hPa | 0 mm | - | 6 W/m² | - |
| 1777888044 | 2.78° C | 86% | 1012.8 hPa | 0 mm | - | 4 W/m² | - |
| 1777887741 | 2.78° C | 86% | 1012.8 hPa | 0 mm | - | 3 W/m² | - |
| 1777887438 | 2.78° C | 86% | 1012.9 hPa | 0 mm | - | 2 W/m² | - |
| 1777887133 | 2.78° C | 86% | 1012.7 hPa | 0 mm | - | 1 W/m² | - |
| 1777886829 | 2.78° C | 86% | 1012.8 hPa | 0 mm | - | 0 W/m² | - |
| 1777886525 | 2.78° C | 86% | 1012.6 hPa | 0 mm | - | 0 W/m² | - |
| 1777886223 | 2.78° C | 86% | 1012.6 hPa | 0 mm | - | 0 W/m² | - |
| 1777885921 | 2.78° C | 86% | 1012.8 hPa | 0 mm | - | 0 W/m² | - |
| 1777885619 | 2.78° C | 86% | 1012.8 hPa | 0 mm | - | 0 W/m² | - |
| 1777885317 | 2.78° C | 86% | 1012.4 hPa | 0 mm | - | 0 W/m² | - |
| 1777885015 | 2.78° C | 85% | 1012.6 hPa | 0 mm | - | 0 W/m² | - |
| 1777884710 | 3.33° C | 84% | 1012.4 hPa | 0 mm | - | 0 W/m² | - |
| 1777884407 | 3.33° C | 84% | 1012.5 hPa | 0 mm | - | 0 W/m² | - |
| 1777884104 | 3.89° C | 84% | 1012.6 hPa | 0 mm | - | 0 W/m² | - |
* Rain latest hour (hover to see other rain measurements)
** Current wind speed in m/s (hover to see current wind gust speed)